Change the Weather History Date:

Monday, March 4, 2013

  Actual Average Record
Temperature  
Mean Temperature 27 °F 27 °F  
Max Temperature 30 °F 36 °F 56 °F (1953)
Min Temperature 23 °F 17 °F -14 °F (1950)
Degree Days  
Heating Degree Days 38 38  
Month to date heating degree days 143 155  
Since 1 July heating degree days 5294 5767  
Cooling Degree Days 0 0  
Month to date cooling degree days 0 0  
Year to date cooling degree days 0 0  
Moisture  
Dew Point 18 °F    
Average Humidity 67    
Maximum Humidity 81    
Minimum Humidity 53    
Precipitation  
Precipitation 0.03 in - 2.80 in (1971)
Month to date precipitation 0.03  
Year to date precipitation 1.51  
Sea Level Pressure  
Sea Level Pressure 29.79 in    
Wind  
Wind Speed 5 mph (West)    
Max Wind Speed 13 mph    
Max Gust Speed 23 mph    
Visibility 7 miles    
Events Fog , Snow    
T = Trace of Precipitation, MM = Missing Value Source: NWS Daily Summary

Daily Weather History Graph

Daily Weather History Graph

Search for Another Location

Airport or City:

Trip Planner

Search our weather history database for the weather conditions in past years. The results will help you decide how hot, cold, wet, or windy it might be!

Date:

Astronomy

Mar. 04, 2013 Rise Set
Actual Time 6:25 AM EST 5:45 PM EST
Civil Twilight 5:56 AM EST 6:15 PM EST
Nautical Twilight 5:22 AM EST 6:48 PM EST
Astronomical Twilight 4:48 AM EST 7:22 PM EST
Moon 12:42 AM EST (3/4) 10:14 AM EST (3/4)
Length of Visible Light 12h 18m
Length of Day
11h 20m
Waning Gibbous, 52% of the Moon is Illuminated
Mar 4
Waning Gibbous
Mar 4
Last Quarter
Mar 11
New
Mar 19
First Quarter
Mar 27
Full

Hourly Weather History & Observations

Time (EST) Temp. Windchill Dew Point Humidity Pressure Visibility Wind Dir Wind Speed Gust Speed Precip Events Conditions
12:53 AM 26.1 °F 20.5 °F 17.1 °F 69% 29.73 in 10.0 mi WNW 4.6 mph - N/A   Overcast
1:53 AM 25.0 °F 17.1 °F 16.0 °F 69% 29.73 in 10.0 mi WNW 6.9 mph - N/A   Overcast
3:53 AM 25.0 °F 19.3 °F 16.0 °F 69% 29.73 in 10.0 mi Variable 4.6 mph - N/A   Overcast
4:53 AM 24.1 °F 13.1 °F 15.1 °F 69% 29.74 in 10.0 mi West 11.5 mph 18.4 mph N/A   Overcast
5:53 AM 24.1 °F 17.0 °F 15.1 °F 69% 29.74 in 10.0 mi Variable 5.8 mph - N/A   Overcast
6:53 AM 23.0 °F 14.7 °F 12.9 °F 65% 29.76 in 10.0 mi Variable 6.9 mph 16.1 mph N/A   Overcast
7:53 AM 23.0 °F 14.7 °F 12.9 °F 65% 29.75 in 10.0 mi Variable 6.9 mph - N/A   Overcast
8:53 AM 25.0 °F 15.5 °F 12.9 °F 60% 29.76 in 10.0 mi West 9.2 mph - N/A   Overcast
9:53 AM 27.0 °F 17.3 °F 14.0 °F 58% 29.75 in 10.0 mi WSW 10.4 mph 18.4 mph N/A   Overcast
10:53 AM 28.0 °F 20.0 °F 14.0 °F 56% 29.75 in 10.0 mi West 8.1 mph - 0.00 in   Overcast
11:53 AM 30.0 °F 24.1 °F 16.0 °F 56% 29.75 in 10.0 mi Variable 5.8 mph - N/A   Overcast
12:53 PM 30.0 °F 22.4 °F 17.1 °F 59% 29.75 in 10.0 mi WNW 8.1 mph - N/A   Overcast
1:53 PM 28.9 °F 22.8 °F 19.9 °F 69% 29.76 in 5.0 mi Variable 5.8 mph - 0.00 in Snow Light Snow
2:11 PM 28.4 °F 20.4 °F 19.4 °F 69% 29.76 in 4.0 mi WNW 8.1 mph - 0.00 in Snow Light Snow
2:22 PM 28.4 °F 23.3 °F 21.2 °F 74% 29.76 in 1.8 mi Variable 4.6 mph - 0.00 in Snow Light Snow
2:31 PM 28.4 °F 24.6 °F 21.2 °F 74% 29.76 in 3.0 mi WNW 3.5 mph - 0.00 in Snow Light Snow
2:48 PM 26.6 °F 18.2 °F 21.2 °F 80% 29.77 in 1.8 mi WNW 8.1 mph - 0.00 in Snow Light Snow
2:49 PM 27.0 °F 19.5 °F 21.0 °F 78% 29.78 in 1.8 mi Variable 6.9 mph - 0.00 in Snow Light Snow
3:25 PM 26.6 °F 22.6 °F 21.2 °F 80% 29.79 in 0.8 mi WNW 3.5 mph - 0.01 in Snow Light Snow
3:36 PM 26.6 °F 21.2 °F 21.2 °F 80% 29.79 in 0.5 mi WNW 4.6 mph - 0.02 in Fog , Snow Snow
3:53 PM 26.1 °F 19.4 °F 21.9 °F 84% 29.80 in 1.0 mi Variable 5.8 mph - 0.02 in Snow Light Snow
4:08 PM 26.6 °F 20.0 °F 19.4 °F 74% 29.79 in 3.0 mi West 5.8 mph - 0.00 in Snow Light Snow
4:22 PM 26.6 °F 21.2 °F 19.4 °F 74% 29.80 in 5.0 mi West 4.6 mph - 0.00 in Snow Light Snow
4:35 PM 26.6 °F 22.6 °F 19.4 °F 74% 29.80 in 2.0 mi West 3.5 mph - 0.01 in Snow Light Snow
4:48 PM 26.6 °F - 19.4 °F 74% 29.81 in 6.0 mi Calm Calm - 0.01 in Snow Light Snow
4:53 PM 27.0 °F 21.6 °F 19.0 °F 72% 29.82 in 9.0 mi Variable 4.6 mph - 0.01 in Snow Light Snow
5:53 PM 27.0 °F - 18.0 °F 69% 29.85 in 10.0 mi Calm Calm - N/A   Overcast
6:53 PM 27.0 °F - 17.1 °F 66% 29.87 in 10.0 mi Calm Calm - N/A   Overcast
7:53 PM 27.0 °F - 18.0 °F 69% 29.88 in 10.0 mi Calm Calm - N/A   Overcast
8:30 PM 26.6 °F - 19.4 °F 74% 29.88 in 5.0 mi Calm Calm - 0.00 in Snow Light Snow
8:53 PM 27.0 °F 23.0 °F 19.0 °F 72% 29.89 in 10.0 mi West 3.5 mph - 0.00 in   Overcast
9:53 PM 26.1 °F - 18.0 °F 71% 29.89 in 10.0 mi Calm Calm - N/A   Overcast
10:53 PM 27.0 °F - 18.0 °F 69% 29.91 in 10.0 mi Calm Calm - N/A   Overcast
11:53 PM 27.0 °F 20.5 °F 18.0 °F 69% 29.91 in 10.0 mi West 5.8 mph - N/A   Overcast